contact:dominique.lefevre@mio.osupytheas.fr, maurice.libes@osupytheas.fr, didier.mallarino@osupytheas.fr
Project:EMSO http://www.emso-fr.org/EMSO-France
Depth: 2436.0 m
Title:EMSO Ligure Ouest : Data MII capteur CSTAR
DateTime,Latitude,Longitude,Instrument_Serial,Reference_Counts,Signal_Counts,Corrected_Signal_raw_counts,Calculated_Beam_c_inverse_meters,Internal_thermistor_counts
DateTime,Latitude,Longitude,Instrument_Serial,Reference_Counts,Signal_Counts,Corrected_Signal_raw_counts,Calculated_Beam_c_inverse_meters,Internal_thermistor_counts
2021-08-05T00:00:57,42.805,6.029,CST-1368DR,5329,7349,14784,0.219,551
2021-08-05T00:03:59,42.805,6.029,CST-1368DR,5329,7349,14785,0.219,551
2021-08-05T00:07:01,42.805,6.029,CST-1368DR,5329,7349,14785,0.219,551
2021-08-05T00:10:02,42.805,6.029,CST-1368DR,5329,7349,14784,0.219,551
2021-08-05T00:13:04,42.805,6.029,CST-1368DR,5329,7349,14784,0.219,551
2021-08-05T00:16:05,42.805,6.029,CST-1368DR,5329,7348,14784,0.219,551
2021-08-05T00:19:07,42.805,6.029,CST-1368DR,5329,7348,14783,0.219,551
2021-08-05T00:22:08,42.805,6.029,CST-1368DR,5329,7348,14784,0.219,551
2021-08-05T00:25:10,42.805,6.029,CST-1368DR,5329,7349,14785,0.219,551
2021-08-05T00:28:12,42.805,6.029,CST-1368DR,5329,7349,14785,0.219,551
2021-08-05T00:31:13,42.805,6.029,CST-1368DR,5329,7349,14784,0.219,551
2021-08-05T00:34:15,42.805,6.029,CST-1368DR,5329,7349,14785,0.219,551
2021-08-05T00:37:16,42.805,6.029,CST-1368DR,5329,7349,14784,0.219,551
2021-08-05T00:40:18,42.805,6.029,CST-1368DR,5329,7348,14783,0.219,551
2021-08-05T00:43:19,42.805,6.029,CST-1368DR,5329,7348,14783,0.219,551
2021-08-05T00:46:21,42.805,6.029,CST-1368DR,5329,7348,14784,0.219,551
2021-08-05T00:49:23,42.805,6.029,CST-1368DR,5329,7348,14783,0.219,551
2021-08-05T00:52:24,42.805,6.029,CST-1368DR,5329,7349,14784,0.219,551
2021-08-05T00:55:26,42.805,6.029,CST-1368DR,5329,7348,14784,0.219,551
2021-08-05T00:58:27,42.805,6.029,CST-1368DR,5329,7348,14783,0.219,551
2021-08-05T01:01:29,42.805,6.029,CST-1368DR,5329,7348,14783,0.219,551
2021-08-05T01:04:31,42.805,6.029,CST-1368DR,5329,7349,14785,0.219,551
2021-08-05T01:07:32,42.805,6.029,CST-1368DR,5329,7349,14785,0.219,551
2021-08-05T01:10:34,42.805,6.029,CST-1368DR,5329,7348,14784,0.219,551
2021-08-05T01:13:35,42.805,6.029,CST-1368DR,5329,7348,14782,0.220,551
2021-08-05T01:16:37,42.805,6.029,CST-1368DR,5329,7349,14784,0.219,551
2021-08-05T01:19:38,42.805,6.029,CST-1368DR,5329,7348,14784,0.219,551
2021-08-05T01:22:40,42.805,6.029,CST-1368DR,5329,7347,14781,0.220,551
2021-08-05T01:25:42,42.805,6.029,CST-1368DR,5329,7348,14783,0.219,551
2021-08-05T01:28:43,42.805,6.029,CST-1368DR,5329,7349,14784,0.219,551
2021-08-05T01:31:45,42.805,6.029,CST-1368DR,5329,7348,14782,0.220,551
2021-08-05T01:34:46,42.805,6.029,CST-1368DR,5329,7347,14782,0.220,551
2021-08-05T01:37:48,42.805,6.029,CST-1368DR,5329,7348,14782,0.220,550
2021-08-05T01:40:50,42.805,6.029,CST-1368DR,5329,7349,14784,0.219,551
2021-08-05T01:43:51,42.805,6.029,CST-1368DR,5329,7348,14783,0.219,551
2021-08-05T01:46:53,42.805,6.029,CST-1368DR,5329,7344,14775,0.221,551
2021-08-05T01:49:54,42.805,6.029,CST-1368DR,5329,7348,14784,0.219,551
2021-08-05T01:52:56,42.805,6.029,CST-1368DR,5329,7348,14783,0.219,550
2021-08-05T01:55:57,42.805,6.029,CST-1368DR,5329,7347,14782,0.220,551
2021-08-05T01:58:59,42.805,6.029,CST-1368DR,5329,7346,14780,0.220,551
2021-08-05T02:02:01,42.805,6.029,CST-1368DR,5329,7347,14782,0.220,551
2021-08-05T02:05:02,42.805,6.029,CST-1368DR,5329,7348,14784,0.219,551
2021-08-05T02:08:04,42.805,6.029,CST-1368DR,5329,7349,14784,0.219,551
2021-08-05T02:11:05,42.805,6.029,CST-1368DR,5329,7348,14783,0.219,551
2021-08-05T02:14:07,42.805,6.029,CST-1368DR,5329,7348,14784,0.219,551
2021-08-05T02:17:08,42.805,6.029,CST-1368DR,5329,7348,14784,0.219,551
2021-08-05T02:20:10,42.805,6.029,CST-1368DR,5329,7347,14780,0.220,551
2021-08-05T02:23:12,42.805,6.029,CST-1368DR,5329,7348,14784,0.219,551
2021-08-05T02:26:13,42.805,6.029,CST-1368DR,5329,7348,14784,0.219,551
2021-08-05T02:29:15,42.805,6.029,CST-1368DR,5329,7347,14782,0.220,551
2021-08-05T02:32:16,42.805,6.029,CST-1368DR,5329,7346,14780,0.220,551
2021-08-05T02:35:18,42.805,6.029,CST-1368DR,5328,7348,14785,0.219,551
2021-08-05T02:38:20,42.805,6.029,CST-1368DR,5329,7346,14780,0.220,551
2021-08-05T02:41:21,42.805,6.029,CST-1368DR,5329,7347,14780,0.220,551
2021-08-05T02:44:23,42.805,6.029,CST-1368DR,5329,7346,14779,0.220,551
2021-08-05T02:47:24,42.805,6.029,CST-1368DR,5328,7347,14783,0.219,551
2021-08-05T02:50:26,42.805,6.029,CST-1368DR,5329,7348,14783,0.219,551
2021-08-05T02:53:27,42.805,6.029,CST-1368DR,5329,7347,14782,0.220,551
2021-08-05T02:56:29,42.805,6.029,CST-1368DR,5329,7347,14780,0.220,551
2021-08-05T02:59:31,42.805,6.029,CST-1368DR,5328,7348,14785,0.219,551
2021-08-05T03:02:32,42.805,6.029,CST-1368DR,5329,7348,14782,0.220,551
2021-08-05T03:05:34,42.805,6.029,CST-1368DR,5329,7348,14783,0.219,551
2021-08-05T03:08:35,42.805,6.029,CST-1368DR,5329,7348,14782,0.220,551
2021-08-05T03:11:37,42.805,6.029,CST-1368DR,5329,7347,14782,0.220,551
2021-08-05T03:14:39,42.805,6.029,CST-1368DR,5328,7342,14773,0.222,551
2021-08-05T03:17:40,42.805,6.029,CST-1368DR,5329,7347,14782,0.220,551
2021-08-05T03:20:42,42.805,6.029,CST-1368DR,5328,7347,14784,0.219,551
2021-08-05T03:23:43,42.805,6.029,CST-1368DR,5328,7347,14784,0.219,551
2021-08-05T03:26:45,42.805,6.029,CST-1368DR,5328,7347,14784,0.219,551
2021-08-05T03:29:46,42.805,6.029,CST-1368DR,5329,7347,14781,0.220,551
2021-08-05T03:32:48,42.805,6.029,CST-1368DR,5328,7346,14782,0.220,551
2021-08-05T03:35:50,42.805,6.029,CST-1368DR,5328,7348,14785,0.219,551
2021-08-05T03:38:51,42.805,6.029,CST-1368DR,5328,7346,14782,0.220,551
2021-08-05T03:41:53,42.805,6.029,CST-1368DR,5328,7346,14782,0.220,551
2021-08-05T03:44:54,42.805,6.029,CST-1368DR,5328,7348,14785,0.219,551
2021-08-05T03:47:56,42.805,6.029,CST-1368DR,5328,7345,14780,0.220,551
2021-08-05T03:50:58,42.805,6.029,CST-1368DR,5328,7348,14786,0.218,551
2021-08-05T03:53:59,42.805,6.029,CST-1368DR,5328,7348,14785,0.219,551
2021-08-05T03:57:01,42.805,6.029,CST-1368DR,5328,7348,14785,0.219,551
2021-08-05T04:00:02,42.805,6.029,CST-1368DR,5328,7347,14784,0.219,551
2021-08-05T04:03:04,42.805,6.029,CST-1368DR,5328,7346,14782,0.220,551
2021-08-05T04:06:05,42.805,6.029,CST-1368DR,5328,7347,14784,0.219,551
2021-08-05T04:09:07,42.805,6.029,CST-1368DR,5328,7347,14784,0.219,551
2021-08-05T04:12:09,42.805,6.029,CST-1368DR,5328,7346,14782,0.220,551
2021-08-05T04:15:10,42.805,6.029,CST-1368DR,5328,7347,14784,0.219,551
2021-08-05T04:18:12,42.805,6.029,CST-1368DR,5328,7348,14785,0.219,551
2021-08-05T04:21:13,42.805,6.029,CST-1368DR,5328,7348,14786,0.218,551
2021-08-05T04:24:15,42.805,6.029,CST-1368DR,5328,7348,14785,0.219,551
2021-08-05T04:27:16,42.805,6.029,CST-1368DR,5328,7347,14784,0.219,551
2021-08-05T04:30:18,42.805,6.029,CST-1368DR,5328,7347,14784,0.219,551
2021-08-05T04:33:20,42.805,6.029,CST-1368DR,5328,7347,14784,0.219,551
2021-08-05T04:36:21,42.805,6.029,CST-1368DR,5328,7348,14786,0.218,551
2021-08-05T04:39:23,42.805,6.029,CST-1368DR,5328,7349,14788,0.218,551
2021-08-05T04:42:24,42.805,6.029,CST-1368DR,5328,7348,14786,0.218,551
2021-08-05T04:45:26,42.805,6.029,CST-1368DR,5328,7347,14783,0.219,551
2021-08-05T04:48:28,42.805,6.029,CST-1368DR,5328,7348,14786,0.218,551
2021-08-05T04:51:29,42.805,6.029,CST-1368DR,5328,7348,14785,0.219,551
2021-08-05T04:54:31,42.805,6.029,CST-1368DR,5328,7347,14784,0.219,551
2021-08-05T04:57:32,42.805,6.029,CST-1368DR,5328,7346,14781,0.220,551
2021-08-05T05:00:34,42.805,6.029,CST-1368DR,5328,7346,14782,0.220,551
2021-08-05T05:03:35,42.805,6.029,CST-1368DR,5328,7347,14784,0.219,551
2021-08-05T05:06:37,42.805,6.029,CST-1368DR,5328,7347,14784,0.219,551
2021-08-05T05:09:39,42.805,6.029,CST-1368DR,5328,7348,14785,0.219,551
2021-08-05T05:12:40,42.805,6.029,CST-1368DR,5328,7348,14785,0.219,551
2021-08-05T05:15:42,42.805,6.029,CST-1368DR,5328,7346,14782,0.220,551
2021-08-05T05:18:43,42.805,6.029,CST-1368DR,5328,7347,14784,0.219,551
2021-08-05T05:21:45,42.805,6.029,CST-1368DR,5328,7348,14786,0.218,551
2021-08-05T05:24:46,42.805,6.029,CST-1368DR,5328,7344,14778,0.221,551
2021-08-05T05:27:48,42.805,6.029,CST-1368DR,5328,7347,14784,0.219,551
2021-08-05T05:30:50,42.805,6.029,CST-1368DR,5328,7341,14771,0.223,551
2021-08-05T05:33:51,42.805,6.029,CST-1368DR,5328,7347,14784,0.219,551
2021-08-05T05:36:53,42.805,6.029,CST-1368DR,5328,7348,14785,0.219,551
2021-08-05T05:39:54,42.805,6.029,CST-1368DR,5328,7347,14784,0.219,551
2021-08-05T05:42:56,42.805,6.029,CST-1368DR,5328,7348,14785,0.219,551
2021-08-05T05:45:58,42.805,6.029,CST-1368DR,5328,7347,14784,0.219,551
2021-08-05T05:48:59,42.805,6.029,CST-1368DR,5328,7348,14785,0.219,551
2021-08-05T05:52:01,42.805,6.029,CST-1368DR,5328,7348,14786,0.218,551
2021-08-05T05:55:02,42.805,6.029,CST-1368DR,5328,7347,14784,0.219,551
2021-08-05T05:58:04,42.805,6.029,CST-1368DR,5328,7347,14784,0.219,551
2021-08-05T06:01:05,42.805,6.029,CST-1368DR,5328,7348,14785,0.219,551
2021-08-05T06:04:07,42.805,6.029,CST-1368DR,5328,7348,14785,0.219,551
2021-08-05T06:07:09,42.805,6.029,CST-1368DR,5328,7347,14783,0.219,551
2021-08-05T06:10:10,42.805,6.029,CST-1368DR,5328,7348,14785,0.219,551
2021-08-05T06:13:12,42.805,6.029,CST-1368DR,5328,7348,14786,0.218,551
2021-08-05T06:16:13,42.805,6.029,CST-1368DR,5328,7348,14786,0.218,551
2021-08-05T06:19:15,42.805,6.029,CST-1368DR,5328,7349,14787,0.218,551
2021-08-05T06:22:16,42.805,6.029,CST-1368DR,5328,7347,14783,0.219,551
2021-08-05T06:25:18,42.805,6.029,CST-1368DR,5328,7348,14786,0.218,551
2021-08-05T06:28:20,42.805,6.029,CST-1368DR,5328,7348,14786,0.218,551
2021-08-05T06:31:21,42.805,6.029,CST-1368DR,5328,7346,14782,0.220,551
2021-08-05T06:34:23,42.805,6.029,CST-1368DR,5328,7349,14787,0.218,551
2021-08-05T06:37:24,42.805,6.029,CST-1368DR,5328,7348,14785,0.219,551
2021-08-05T06:40:26,42.805,6.029,CST-1368DR,5328,7348,14785,0.219,551
2021-08-05T06:43:28,42.805,6.029,CST-1368DR,5328,7348,14786,0.218,551
2021-08-05T06:46:29,42.805,6.029,CST-1368DR,5328,7348,14785,0.219,551
2021-08-05T06:49:31,42.805,6.029,CST-1368DR,5328,7348,14786,0.218,551
2021-08-05T06:52:32,42.805,6.029,CST-1368DR,5328,7347,14784,0.219,551
2021-08-05T06:55:34,42.805,6.029,CST-1368DR,5328,7347,14784,0.219,551
2021-08-05T06:58:35,42.805,6.029,CST-1368DR,5328,7347,14784,0.219,551
2021-08-05T07:01:37,42.805,6.029,CST-1368DR,5328,7348,14785,0.219,551
2021-08-05T07:04:39,42.805,6.029,CST-1368DR,5328,7348,14785,0.219,551
2021-08-05T07:07:40,42.805,6.029,CST-1368DR,5328,7348,14786,0.218,551
2021-08-05T07:10:42,42.805,6.029,CST-1368DR,5328,7346,14782,0.220,551
2021-08-05T07:13:43,42.805,6.029,CST-1368DR,5328,7348,14785,0.219,551
2021-08-05T07:16:45,42.805,6.029,CST-1368DR,5328,7347,14784,0.219,551
2021-08-05T07:19:47,42.805,6.029,CST-1368DR,5328,7347,14784,0.219,551
2021-08-05T07:22:48,42.805,6.029,CST-1368DR,5328,7347,14783,0.219,551
2021-08-05T07:25:50,42.805,6.029,CST-1368DR,5328,7348,14785,0.219,551
2021-08-05T07:28:51,42.805,6.029,CST-1368DR,5328,7347,14784,0.219,551
2021-08-05T07:31:53,42.805,6.029,CST-1368DR,5328,7347,14783,0.219,551
2021-08-05T07:34:54,42.805,6.029,CST-1368DR,5328,7346,14781,0.220,551
2021-08-05T07:37:56,42.805,6.029,CST-1368DR,5328,7346,14781,0.220,551
2021-08-05T07:40:58,42.805,6.029,CST-1368DR,5328,7344,14778,0.221,551
2021-08-05T07:43:59,42.805,6.029,CST-1368DR,5328,7345,14779,0.220,551
2021-08-05T07:47:01,42.805,6.029,CST-1368DR,5328,7345,14779,0.220,551
2021-08-05T07:50:02,42.805,6.029,CST-1368DR,5328,7346,14782,0.220,551
2021-08-05T07:53:04,42.805,6.029,CST-1368DR,5328,7343,14775,0.221,550
2021-08-05T07:56:05,42.805,6.029,CST-1368DR,5328,7347,14784,0.219,551
2021-08-05T07:59:07,42.805,6.029,CST-1368DR,5328,7348,14785,0.219,551
2021-08-05T08:02:09,42.805,6.029,CST-1368DR,5328,7347,14784,0.219,551
2021-08-05T08:05:10,42.805,6.029,CST-1368DR,5328,7347,14783,0.219,551
2021-08-05T08:08:12,42.805,6.029,CST-1368DR,5328,7347,14784,0.219,551
2021-08-05T08:11:13,42.805,6.029,CST-1368DR,5328,7347,14784,0.219,551
2021-08-05T08:14:15,42.805,6.029,CST-1368DR,5328,7347,14783,0.219,551
2021-08-05T08:17:17,42.805,6.029,CST-1368DR,5328,7345,14780,0.220,551
2021-08-05T08:20:18,42.805,6.029,CST-1368DR,5328,7347,14784,0.219,551
2021-08-05T08:23:20,42.805,6.029,CST-1368DR,5328,7347,14783,0.219,551
2021-08-05T08:26:21,42.805,6.029,CST-1368DR,5328,7345,14779,0.220,551
2021-08-05T08:29:23,42.805,6.029,CST-1368DR,5328,7347,14784,0.219,551
2021-08-05T08:32:24,42.805,6.029,CST-1368DR,5328,7347,14784,0.219,551
2021-08-05T08:35:26,42.805,6.029,CST-1368DR,5328,7348,14785,0.219,551
2021-08-05T08:38:28,42.805,6.029,CST-1368DR,5328,7345,14780,0.220,551
2021-08-05T08:41:29,42.805,6.029,CST-1368DR,5328,7346,14782,0.220,551
2021-08-05T08:44:31,42.805,6.029,CST-1368DR,5328,7346,14782,0.220,551
2021-08-05T08:47:32,42.805,6.029,CST-1368DR,5328,7346,14781,0.220,551
2021-08-05T08:50:34,42.805,6.029,CST-1368DR,5328,7347,14784,0.219,551
2021-08-05T08:53:36,42.805,6.029,CST-1368DR,5328,7346,14782,0.220,551
2021-08-05T08:56:37,42.805,6.029,CST-1368DR,5328,7344,14778,0.221,551
2021-08-05T08:59:39,42.805,6.029,CST-1368DR,5328,7346,14782,0.220,551
2021-08-05T09:02:40,42.805,6.029,CST-1368DR,5328,7345,14779,0.220,551
2021-08-05T09:05:42,42.805,6.029,CST-1368DR,5328,7345,14780,0.220,551
2021-08-05T09:08:43,42.805,6.029,CST-1368DR,5328,7346,14781,0.220,551
2021-08-05T09:11:45,42.805,6.029,CST-1368DR,5328,7346,14781,0.220,551
2021-08-05T09:14:47,42.805,6.029,CST-1368DR,5328,7345,14779,0.220,551
2021-08-05T09:17:48,42.805,6.029,CST-1368DR,5328,7344,14777,0.221,551
2021-08-05T09:20:50,42.805,6.029,CST-1368DR,5328,7345,14779,0.220,551
2021-08-05T09:23:51,42.805,6.029,CST-1368DR,5328,7346,14782,0.220,551
2021-08-05T09:26:53,42.805,6.029,CST-1368DR,5328,7345,14779,0.220,551
2021-08-05T09:29:54,42.805,6.029,CST-1368DR,5328,7346,14782,0.220,550
2021-08-05T09:32:56,42.805,6.029,CST-1368DR,5328,7346,14781,0.220,551
2021-08-05T09:35:58,42.805,6.029,CST-1368DR,5328,7346,14782,0.220,551
2021-08-05T09:38:59,42.805,6.029,CST-1368DR,5328,7347,14784,0.219,551
2021-08-05T09:42:01,42.805,6.029,CST-1368DR,5328,7347,14783,0.219,551
2021-08-05T09:45:02,42.805,6.029,CST-1368DR,5328,7344,14777,0.221,551
2021-08-05T09:48:04,42.805,6.029,CST-1368DR,5328,7346,14781,0.220,551
2021-08-05T09:51:06,42.805,6.029,CST-1368DR,5328,7343,14776,0.221,551
2021-08-05T09:54:07,42.805,6.029,CST-1368DR,5328,7345,14780,0.220,551
2021-08-05T09:57:09,42.805,6.029,CST-1368DR,5328,7344,14777,0.221,551
2021-08-05T10:00:10,42.805,6.029,CST-1368DR,5328,7346,14782,0.220,551
2021-08-05T10:03:12,42.805,6.029,CST-1368DR,5328,7345,14780,0.220,551
2021-08-05T10:06:13,42.805,6.029,CST-1368DR,5328,7346,14782,0.220,551
2021-08-05T10:09:15,42.805,6.029,CST-1368DR,5328,7346,14782,0.220,551
2021-08-05T10:12:17,42.805,6.029,CST-1368DR,5328,7346,14782,0.220,551
2021-08-05T10:15:18,42.805,6.029,CST-1368DR,5328,7347,14784,0.219,551
2021-08-05T10:18:20,42.805,6.029,CST-1368DR,5328,7345,14780,0.220,551
2021-08-05T10:21:21,42.805,6.029,CST-1368DR,5328,7347,14784,0.219,551
2021-08-05T10:24:23,42.805,6.029,CST-1368DR,5328,7345,14779,0.220,551
2021-08-05T10:27:25,42.805,6.029,CST-1368DR,5328,7345,14779,0.220,551
2021-08-05T10:30:26,42.805,6.029,CST-1368DR,5328,7345,14780,0.220,551
2021-08-05T10:33:28,42.805,6.029,CST-1368DR,5328,7346,14781,0.220,551
2021-08-05T10:36:29,42.805,6.029,CST-1368DR,5328,7345,14780,0.220,551
2021-08-05T10:39:31,42.805,6.029,CST-1368DR,5328,7346,14781,0.220,551
2021-08-05T10:42:32,42.805,6.029,CST-1368DR,5328,7345,14780,0.220,551
2021-08-05T10:45:34,42.805,6.029,CST-1368DR,5328,7345,14780,0.220,551
2021-08-05T10:48:36,42.805,6.029,CST-1368DR,5328,7346,14781,0.220,551
2021-08-05T10:51:37,42.805,6.029,CST-1368DR,5328,7346,14782,0.220,551
2021-08-05T10:54:39,42.805,6.029,CST-1368DR,5328,7344,14778,0.221,551
2021-08-05T10:57:40,42.805,6.029,CST-1368DR,5328,7346,14782,0.220,551
2021-08-05T11:00:42,42.805,6.029,CST-1368DR,5328,7345,14780,0.220,551
2021-08-05T11:03:43,42.805,6.029,CST-1368DR,5328,7346,14782,0.220,551
2021-08-05T11:06:45,42.805,6.029,CST-1368DR,5328,7345,14780,0.220,551
2021-08-05T11:09:47,42.805,6.029,CST-1368DR,5327,7346,14785,0.219,551
2021-08-05T11:12:48,42.805,6.029,CST-1368DR,5327,7347,14786,0.218,551
2021-08-05T11:15:50,42.805,6.029,CST-1368DR,5327,7344,14781,0.220,551
2021-08-05T11:18:51,42.805,6.029,CST-1368DR,5328,7345,14780,0.220,551
2021-08-05T11:21:53,42.805,6.029,CST-1368DR,5327,7346,14784,0.219,551
2021-08-05T11:24:55,42.805,6.029,CST-1368DR,5327,7346,14783,0.219,551
2021-08-05T11:27:56,42.805,6.029,CST-1368DR,5328,7346,14782,0.220,551
2021-08-05T11:30:58,42.805,6.029,CST-1368DR,5328,7346,14781,0.220,551
2021-08-05T11:33:59,42.805,6.029,CST-1368DR,5328,7347,14783,0.219,551
2021-08-05T11:37:01,42.805,6.029,CST-1368DR,5327,7347,14786,0.218,551
2021-08-05T11:40:02,42.805,6.029,CST-1368DR,5327,7346,14785,0.219,551
2021-08-05T11:43:04,42.805,6.029,CST-1368DR,5328,7346,14781,0.220,551
2021-08-05T11:46:06,42.805,6.029,CST-1368DR,5328,7345,14780,0.220,551
2021-08-05T11:49:07,42.805,6.029,CST-1368DR,5328,7344,14777,0.221,551
2021-08-05T11:52:09,42.805,6.029,CST-1368DR,5327,7346,14784,0.219,551
2021-08-05T11:55:10,42.805,6.029,CST-1368DR,5328,7346,14782,0.220,551
2021-08-05T11:58:12,42.805,6.029,CST-1368DR,5327,7346,14784,0.219,551
2021-08-05T12:01:14,42.805,6.029,CST-1368DR,5327,7346,14784,0.219,551
2021-08-05T12:04:15,42.805,6.029,CST-1368DR,5327,7346,14783,0.219,551
2021-08-05T12:07:17,42.805,6.029,CST-1368DR,5327,7346,14784,0.219,551
2021-08-05T12:10:18,42.805,6.029,CST-1368DR,5327,7346,14785,0.219,551
2021-08-05T12:13:20,42.805,6.029,CST-1368DR,5327,7343,14778,0.221,551
2021-08-05T12:16:21,42.805,6.029,CST-1368DR,5327,7346,14784,0.219,551
2021-08-05T12:19:23,42.805,6.029,CST-1368DR,5327,7346,14784,0.219,551
2021-08-05T12:22:25,42.805,6.029,CST-1368DR,5327,7345,14783,0.219,551
2021-08-05T12:25:26,42.805,6.029,CST-1368DR,5327,7345,14782,0.220,551
2021-08-05T12:28:28,42.805,6.029,CST-1368DR,5327,7346,14783,0.219,551
2021-08-05T12:31:29,42.805,6.029,CST-1368DR,5327,7346,14784,0.219,551
2021-08-05T12:34:31,42.805,6.029,CST-1368DR,5327,7346,14784,0.219,551
2021-08-05T12:37:32,42.805,6.029,CST-1368DR,5327,7346,14784,0.219,551
2021-08-05T12:40:34,42.805,6.029,CST-1368DR,5327,7345,14783,0.219,551
2021-08-05T12:43:36,42.805,6.029,CST-1368DR,5327,7346,14784,0.219,551
2021-08-05T12:46:37,42.805,6.029,CST-1368DR,5327,7346,14783,0.219,551
2021-08-05T12:49:39,42.805,6.029,CST-1368DR,5327,7346,14784,0.219,551
2021-08-05T12:52:40,42.805,6.029,CST-1368DR,5327,7346,14784,0.219,551
2021-08-05T12:55:42,42.805,6.029,CST-1368DR,5327,7346,14783,0.219,551
2021-08-05T12:58:44,42.805,6.029,CST-1368DR,5327,7345,14783,0.219,551
2021-08-05T13:01:45,42.805,6.029,CST-1368DR,5327,7346,14784,0.219,551
2021-08-05T13:04:47,42.805,6.029,CST-1368DR,5327,7346,14784,0.219,551
2021-08-05T13:07:48,42.805,6.029,CST-1368DR,5327,7345,14782,0.220,551
2021-08-05T13:10:50,42.805,6.029,CST-1368DR,5327,7347,14785,0.219,551
2021-08-05T13:13:51,42.805,6.029,CST-1368DR,5327,7345,14783,0.219,551
2021-08-05T13:16:53,42.805,6.029,CST-1368DR,5327,7346,14784,0.219,551
2021-08-05T13:19:55,42.805,6.029,CST-1368DR,5327,7346,14784,0.219,551
2021-08-05T13:22:56,42.805,6.029,CST-1368DR,5327,7343,14778,0.221,551
2021-08-05T13:25:58,42.805,6.029,CST-1368DR,5327,7346,14784,0.219,551
2021-08-05T13:28:59,42.805,6.029,CST-1368DR,5327,7346,14783,0.219,551
2021-08-05T13:32:01,42.805,6.029,CST-1368DR,5327,7345,14782,0.220,551
2021-08-05T13:35:03,42.805,6.029,CST-1368DR,5327,7345,14783,0.219,551
2021-08-05T13:38:04,42.805,6.029,CST-1368DR,5327,7345,14782,0.220,551
2021-08-05T13:41:06,42.805,6.029,CST-1368DR,5327,7345,14783,0.219,551
2021-08-05T13:44:07,42.805,6.029,CST-1368DR,5327,7345,14782,0.220,551
2021-08-05T13:47:09,42.805,6.029,CST-1368DR,5327,7346,14785,0.219,551
2021-08-05T13:50:10,42.805,6.029,CST-1368DR,5327,7345,14783,0.219,551
2021-08-05T13:53:12,42.805,6.029,CST-1368DR,5327,7345,14782,0.220,551
2021-08-05T13:56:14,42.805,6.029,CST-1368DR,5327,7346,14784,0.219,551
2021-08-05T13:59:15,42.805,6.029,CST-1368DR,5327,7346,14783,0.219,551
2021-08-05T14:02:17,42.805,6.029,CST-1368DR,5327,7345,14782,0.220,551
2021-08-05T14:05:18,42.805,6.029,CST-1368DR,5327,7341,14774,0.222,551
2021-08-05T14:08:20,42.805,6.029,CST-1368DR,5327,7346,14784,0.219,551
2021-08-05T14:11:21,42.805,6.029,CST-1368DR,5327,7345,14783,0.219,551
2021-08-05T14:14:23,42.805,6.029,CST-1368DR,5327,7346,14784,0.219,551
2021-08-05T14:17:25,42.805,6.029,CST-1368DR,5327,7345,14781,0.220,551
2021-08-05T14:20:26,42.805,6.029,CST-1368DR,5327,7345,14782,0.220,551
2021-08-05T14:23:28,42.805,6.029,CST-1368DR,5327,7344,14779,0.220,551
2021-08-05T14:26:29,42.805,6.029,CST-1368DR,5327,7342,14777,0.221,551
2021-08-05T14:29:31,42.805,6.029,CST-1368DR,5327,7344,14779,0.220,551
2021-08-05T14:32:33,42.805,6.029,CST-1368DR,5327,7346,14784,0.219,551
2021-08-05T14:35:34,42.805,6.029,CST-1368DR,5327,7345,14781,0.220,551
2021-08-05T14:38:36,42.805,6.029,CST-1368DR,5327,7343,14778,0.221,551
2021-08-05T14:41:37,42.805,6.029,CST-1368DR,5327,7344,14779,0.220,551
2021-08-05T14:44:39,42.805,6.029,CST-1368DR,5327,7342,14776,0.221,551
2021-08-05T14:47:40,42.805,6.029,CST-1368DR,5327,7342,14776,0.221,551
2021-08-05T14:50:42,42.805,6.029,CST-1368DR,5327,7339,14771,0.223,551
2021-08-05T14:53:44,42.805,6.029,CST-1368DR,5327,7342,14776,0.221,551
2021-08-05T14:56:45,42.805,6.029,CST-1368DR,5327,7344,14781,0.220,551
2021-08-05T14:59:47,42.805,6.029,CST-1368DR,5327,7344,14780,0.220,551
2021-08-05T15:02:48,42.805,6.029,CST-1368DR,5327,7343,14778,0.221,551
2021-08-05T15:05:50,42.805,6.029,CST-1368DR,5327,7345,14782,0.220,551
2021-08-05T15:08:51,42.805,6.029,CST-1368DR,5327,7345,14781,0.220,551
2021-08-05T15:11:53,42.805,6.029,CST-1368DR,5327,7344,14779,0.220,551
2021-08-05T15:14:55,42.805,6.029,CST-1368DR,5327,7346,14784,0.219,551
2021-08-05T15:17:56,42.805,6.029,CST-1368DR,5327,7345,14783,0.219,551
2021-08-05T15:20:58,42.805,6.029,CST-1368DR,5327,7345,14781,0.220,551
2021-08-05T15:23:59,42.805,6.029,CST-1368DR,5327,7345,14783,0.219,551
2021-08-05T15:27:01,42.805,6.029,CST-1368DR,5327,7345,14783,0.219,551
2021-08-05T15:30:03,42.805,6.029,CST-1368DR,5327,7345,14782,0.220,551
2021-08-05T15:33:04,42.805,6.029,CST-1368DR,5327,7345,14782,0.220,551
2021-08-05T15:36:06,42.805,6.029,CST-1368DR,5327,7345,14781,0.220,551
2021-08-05T15:39:07,42.805,6.029,CST-1368DR,5327,7345,14782,0.220,551
2021-08-05T15:42:09,42.805,6.029,CST-1368DR,5327,7345,14783,0.219,551
2021-08-05T15:45:10,42.805,6.029,CST-1368DR,5327,7344,14779,0.220,551
2021-08-05T15:48:12,42.805,6.029,CST-1368DR,5327,7345,14782,0.220,551
2021-08-05T15:51:14,42.805,6.029,CST-1368DR,5327,7343,14778,0.221,551
2021-08-05T15:54:15,42.805,6.029,CST-1368DR,5327,7339,14769,0.223,551
2021-08-05T15:57:17,42.805,6.029,CST-1368DR,5327,7345,14783,0.219,551
2021-08-05T16:00:18,42.805,6.029,CST-1368DR,5327,7345,14781,0.220,551
2021-08-05T16:03:20,42.805,6.029,CST-1368DR,5327,7345,14782,0.220,551
2021-08-05T16:06:22,42.805,6.029,CST-1368DR,5327,7345,14782,0.220,551
2021-08-05T16:09:23,42.805,6.029,CST-1368DR,5327,7346,14784,0.219,551
2021-08-05T16:12:25,42.805,6.029,CST-1368DR,5327,7346,14783,0.219,550
2021-08-05T16:15:26,42.805,6.029,CST-1368DR,5327,7345,14782,0.220,551
2021-08-05T16:18:28,42.805,6.029,CST-1368DR,5327,7345,14782,0.220,551
2021-08-05T16:21:29,42.805,6.029,CST-1368DR,5327,7345,14782,0.220,551
2021-08-05T16:24:31,42.805,6.029,CST-1368DR,5327,7344,14780,0.220,551
2021-08-05T16:27:33,42.805,6.029,CST-1368DR,5327,7344,14780,0.220,551
2021-08-05T16:30:34,42.805,6.029,CST-1368DR,5327,7345,14782,0.220,551
2021-08-05T16:33:36,42.805,6.029,CST-1368DR,5327,7345,14781,0.220,551
2021-08-05T16:36:37,42.805,6.029,CST-1368DR,5327,7344,14780,0.220,551
2021-08-05T16:39:39,42.805,6.029,CST-1368DR,5327,7345,14783,0.219,551
2021-08-05T16:42:41,42.805,6.029,CST-1368DR,5327,7345,14782,0.220,550
2021-08-05T16:45:42,42.805,6.029,CST-1368DR,5327,7344,14780,0.220,551
2021-08-05T16:48:44,42.805,6.029,CST-1368DR,5327,7346,14783,0.219,551
2021-08-05T16:51:45,42.805,6.029,CST-1368DR,5327,7345,14782,0.220,551